Location: Skalnate Pleso
(49.1889°N, 20.2450°E)
Time: 23:01:19
(UTC+02:00)

Cosmos 1605 Rocket - Pass Details

Date: 29 February 2020
Orbit: 944 x 1006 km, 82.9° (Epoch: 09 April)

Event Time Altitude Azimuth Distance (km) Brightness Sun altitude
Rises 01:21:10 0° 357° (N) 3,672 7.6 -44.6°
Reaches altitude 10° 01:24:14 10° 11° (N) 2,710 6.8 -44.3°
Enters shadow 01:27:20 21° 39° (NE) 1,998 6.0 -44.0°
